Simultaneous Nadir Overpasses (SNOs) Predictions

Prediction of SNOs between AQUA and NPP Satellite Orbit:

Table of predicted SNOs for the next 14.0 days since TLE Epoch: 4/25/2015
Index Date (AQUA) Time (AQUA) Lat,Lon (AQUA) SZA (AQUA ) Date (NPP) Time (NPP) Lat,Lon (NPP) SZA (NPP ) Distance(km) Time Diff (sec)
1 04/25/2015 11:40:18 -68.81, 50.71 88.16 04/25/2015 11:39:43 -68.82, 50.76 88.14 2.36 35
2 04/25/2015 12:28:54 71.49,-137.80 89.08 04/25/2015 12:29:36 71.49,-137.80 89.04 0.03 42
3 04/28/2015 03:56:44 -68.98, 166.80 89.19 04/28/2015 03:56:30 -68.98, 166.76 89.16 1.70 14
4 04/28/2015 04:45:05 72.46, -20.24 87.21 04/28/2015 04:46:07 72.46, -20.19 87.13 1.84 62
5 04/30/2015 19:24:17 67.11, 112.84 91.90 04/30/2015 19:23:08 67.11, 112.89 91.96 2.27 69
6 04/30/2015
